DW1541 Weather Reports


time (UTC)temp
C
wind
direction
speed
KPH
gust
KPH
rain 1hr
cm
rain 24hr
cm
rain mn
cm
humidity
%
barometer
mb
20260503194534 25 0 0.0 0.0 0.00 0.00 0.00 57 1012.7
20260503194018 24 0 0.0 0.0 0.00 0.00 0.00 58 1012.7
20260503193518 23 0 0.0 0.0 0.00 0.00 0.00 64 1012.8
20260503193043 23 0 0.0 0.0 0.00 0.00 0.00 63 1012.8
20260503192516 22 0 0.0 0.0 0.00 0.00 0.00 63 1012.9
20260503192015 21 0 0.0 0.0 0.00 0.00 0.00 67 1013.0
20260503191602 21 0 0.0 0.0 0.00 0.00 0.00 70 1013.0
20260503191015 20 0 0.0 0.0 0.00 0.00 0.00 71 1013.0
20260503190518 20 0 0.0 0.0 0.00 0.00 0.00 73 1013.0
20260503190036 19 0 0.0 0.0 0.00 0.00 0.00 69 1013.1
20260503185519 18 0 0.0 0.0 0.00 0.00 0.00 72 1013.2
20260503185017 18 0 0.0 0.0 0.00 0.00 0.00 71 1013.2
20260503184536 18 0 0.0 0.0 0.00 0.00 0.00 73 1013.2
20260503184017 18 0 0.0 0.0 0.00 0.00 0.00 72 1013.3
20260503183520 18 0 0.0 0.0 0.00 0.00 0.00 71 1013.4
20260503183030 17 0 0.0 0.0 0.00 0.00 0.00 74 1013.4
20260503182516 17 0 0.0 0.0 0.00 0.00 0.00 74 1013.4
20260503182017 17 0 0.0 0.0 0.00 0.00 0.00 74 1013.4
20260503181544 17 0 0.0 0.0 0.00 0.00 0.00 74 1013.5
20260503181017 17 0 0.0 0.0 0.00 0.00 0.00 75 1013.6
20260503180517 16 0 0.0 0.0 0.00 0.00 0.00 75 1013.6
20260503180033 16 0 0.0 0.0 0.00 0.00 0.00 75 1013.6
20260503175517 16 0 0.0 0.0 0.00 0.00 0.00 76 1013.8
20260503175016 16 0 0.0 0.0 0.00 0.00 0.00 77 1013.8
20260503174539 16 0 0.0 0.0 0.00 0.00 0.00 77 1013.8
20260503174017 16 0 0.0 0.0 0.00 0.00 0.00 79 1013.9
20260503173514 15 0 0.0 0.0 0.00 0.00 0.00 78 1013.9
20260503173035 15 0 0.0 0.0 0.00 0.00 0.00 80 1014.1
20260503172515 15 0 0.0 0.0 0.00 0.00 0.00 81 1014.1
20260503172016 15 0 0.0 0.0 0.00 0.00 0.00 82 1014.1
20260503171533 14 0 0.0 0.0 0.00 0.00 0.00 84 1014.1
20260503171017 14 0 0.0 0.0 0.00 0.00 0.00 85 1014.2
20260503170515 13 0 0.0 0.0 0.00 0.00 0.00 86 1014.2
20260503150516 11 0 0.0 0.0 0.00 0.00 0.00 88 1014.2
20260503131017 10 0 0.0 0.0 0.00 0.00 0.00 89 1013.9
20260503130514 11 0 0.0 0.0 0.00 0.00 0.00 89 1014.0
20260503110517 11 0 0.0 0.0 0.00 0.00 0.00 89 1014.3
20260503081540 13 0 0.0 0.0 0.00 0.00 0.00 86 1014.5
20260503081016 13 0 0.0 0.0 0.00 0.00 0.00 86 1014.5
20260503080515 13 0 0.0 0.0 0.00 0.00 0.00 86 1014.5
20260503072516 13 0 0.0 0.0 0.00 0.00 0.00 84 1014.6
20260503072016 13 0 0.0 0.0 0.00 0.00 0.00 83 1014.5
20260503071533 13 0 0.0 0.0 0.00 0.00 0.00 83 1014.6
20260503071015 13 0 0.0 0.0 0.00 0.00 0.00 83 1014.5
20260503070518 13 0 0.0 0.0 0.00 0.00 0.00 82 1014.5
20260503055016 15 0 0.0 0.0 0.00 0.00 0.00 79 1014.4
20260503054544 15 0 0.0 0.0 0.00 0.00 0.00 79 1014.3
20260503054017 15 0 0.0 0.0 0.00 0.00 0.00 79 1014.4
20260503053515 15 0 0.0 0.0 0.00 0.00 0.00 79 1014.3
20260503053035 15 0 0.0 0.0 0.00 0.00 0.00 78 1014.4
20260503052516 15 0 0.0 0.0 0.00 0.00 0.00 78 1014.4
20260503052016 15 0 0.0 0.0 0.00 0.00 0.00 78 1014.4
20260503051535 15 0 0.0 0.0 0.00 0.00 0.00 79 1014.4
20260503051016 15 0 0.0 0.0 0.00 0.00 0.00 78 1014.4
20260503050516 15 0 0.0 0.0 0.00 0.00 0.00 78 1014.4
20260503050035 16 0 0.0 0.0 0.00 0.00 0.00 77 1014.4
20260503045516 16 0 0.0 0.0 0.00 0.00 0.00 76 1014.3
20260503045017 16 0 0.0 0.0 0.00 0.00 0.00 76 1014.2
20260503044540 16 0 0.0 0.0 0.00 0.00 0.00 75 1014.3
20260503044017 16 0 0.0 0.0 0.00 0.00 0.00 75 1014.2
20260503043516 16 0 0.0 0.0 0.00 0.00 0.00 75 1014.1
20260503043042 16 0 0.0 0.0 0.00 0.00 0.00 75 1014.1
20260503042517 16 0 0.0 0.0 0.00 0.00 0.00 74 1014.0
20260503042016 16 0 0.0 0.0 0.00 0.00 0.00 75 1013.9
20260503041530 17 0 0.0 0.0 0.00 0.00 0.00 75 1013.9
20260503041017 17 0 0.0 0.0 0.00 0.00 0.00 74 1013.8
20260503040521 17 0 0.0 0.0 0.00 0.00 0.00 74 1013.8
20260503040037 17 0 0.0 0.0 0.00 0.00 0.00 74 1013.7
20260503035521 17 0 0.0 0.0 0.00 0.00 0.00 73 1013.7
20260503035015 17 0 0.0 0.0 0.00 0.00 0.00 73 1013.6
20260503034541 18 0 0.0 0.0 0.00 0.00 0.00 73 1013.6
20260503034016 18 0 0.0 0.0 0.00 0.00 0.00 72 1013.4
20260503033516 18 0 0.0 0.0 0.00 0.00 0.00 72 1013.6
20260503033034 18 0 0.0 0.0 0.00 0.00 0.00 72 1013.5
20260503032517 18 0 0.0 0.0 0.00 0.00 0.00 71 1013.4
20260503032019 18 0 0.0 0.0 0.00 0.00 0.00 71 1013.3
20260503031534 18 0 0.0 0.0 0.00 0.00 0.00 70 1013.3
20260503031019 19 0 0.0 0.0 0.00 0.00 0.00 70 1013.3
20260503030518 19 0 0.0 0.0 0.00 0.00 0.00 69 1013.2
20260503030038 19 0 0.0 0.0 0.00 0.00 0.00 67 1013.1
20260503025519 20 0 0.0 0.0 0.00 0.00 0.00 67 1013.1
20260503025019 20 0 0.0 0.0 0.00 0.00 0.00 68 1013.1
20260503024538 20 0 0.0 0.0 0.00 0.00 0.00 67 1013.1
20260503024019 20 0 0.0 0.0 0.00 0.00 0.00 66 1013.1
20260503023518 20 0 0.0 0.0 0.00 0.00 0.00 66 1013.0
20260503023037 20 0 0.0 0.0 0.00 0.00 0.00 65 1013.1
20260503022518 20 0 0.0 0.0 0.00 0.00 0.00 65 1013.2
20260503022018 20 0 0.0 0.0 0.00 0.00 0.00 65 1013.1
20260503021534 20 0 0.0 0.0 0.00 0.00 0.00 65 1013.0
20260503021019 20 0 0.0 0.0 0.00 0.00 0.00 64 1013.0
20260503020519 20 0 0.0 0.0 0.00 0.00 0.00 64 1012.9
20260503020040 20 0 0.0 0.0 0.00 0.00 0.00 64 1013.0
20260503015521 21 0 0.0 0.0 0.00 0.00 0.00 64 1012.9
20260503015019 21 0 0.0 0.0 0.00 0.00 0.00 64 1013.0
20260503014539 21 0 0.0 0.0 0.00 0.00 0.00 65 1012.9
20260503014019 21 0 0.0 0.0 0.00 0.00 0.00 65 1012.8
20260503013519 21 0 0.0 0.0 0.00 0.00 0.00 65 1012.7
20260503013042 21 0 0.0 0.0 0.00 0.00 0.00 65 1012.8
20260503012519 21 0 0.0 0.0 0.00 0.00 0.00 66 1012.8
20260503012019 21 0 0.0 0.0 0.00 0.00 0.00 66 1012.9
20260503011536 21 0 0.0 0.0 0.00 0.00 0.00 65 1012.9
20260503011018 21 0 0.0 0.0 0.00 0.00 0.00 65 1012.8
20260503010520 21 0 0.0 0.0 0.00 0.00 0.00 66 1012.9
20260503010035 21 0 0.0 0.0 0.00 0.00 0.00 66 1012.8
20260503005519 21 0 0.0 0.0 0.00 0.00 0.00 66 1012.9
20260503005019 21 0 0.0 0.0 0.00 0.00 0.00 66 1012.9
20260503004537 21 0 0.0 0.0 0.00 0.00 0.00 66 1013.0
20260503004023 21 0 0.0 0.0 0.00 0.00 0.00 66 1013.0
20260503003519 21 0 0.0 0.0 0.00 0.00 0.00 66 1013.0
20260503003043 21 0 0.0 0.0 0.00 0.00 0.00 67 1013.0
20260503002519 21 0 0.0 0.0 0.00 0.00 0.00 67 1013.0
20260503002020 21 0 0.0 0.0 0.00 0.00 0.00 68 1012.9
20260503001546 21 0 0.0 0.0 0.00 0.00 0.00 67 1013.1
20260503001020 21 0 0.0 0.0 0.00 0.00 0.00 68 1013.1
20260503000518 21 0 0.0 0.0 0.00 0.00 0.00 67 1013.0
20260503000034 21 0 0.0 0.0 0.00 0.00 0.00 67 1013.1
20260502235515 21 0 0.0 0.0 0.00 0.00 0.00 66 1013.1
20260502235016 21 0 0.0 0.0 0.00 0.00 0.00 67 1013.2
20260502234547 21 0 0.0 0.0 0.00 0.00 0.00 66 1013.3
20260502234016 21 0 0.0 0.0 0.00 0.00 0.00 66 1013.3
20260502233516 21 0 0.0 0.0 0.00 0.00 0.00 66 1013.4
20260502233039 21 0 0.0 0.0 0.00 0.00 0.00 66 1013.4
20260502232517 21 0 0.0 0.0 0.00 0.00 0.00 66 1013.5
20260502232014 21 0 0.0 0.0 0.00 0.00 0.00 67 1013.5
20260502231534 21 0 0.0 0.0 0.00 0.00 0.00 67 1013.6
20260502231015 21 0 0.0 0.0 0.00 0.00 0.00 68 1013.7
20260502230516 21 0 0.0 0.0 0.00 0.00 0.00 67 1013.8
20260502230036 21 0 0.0 0.0 0.00 0.00 0.00 68 1013.9
20260502225517 21 0 0.0 0.0 0.00 0.00 0.00 68 1013.9
20260502225017 21 0 0.0 0.0 0.00 0.00 0.00 67 1014.0
20260502224540 21 0 0.0 0.0 0.00 0.00 0.00 68 1014.1
20260502224017 21 0 0.0 0.0 0.00 0.00 0.00 68 1014.1
20260502223517 21 0 0.0 0.0 0.00 0.00 0.00 68 1014.2
20260502223039 21 0 0.0 0.0 0.00 0.00 0.00 68 1014.2
20260502222516 21 0 0.0 0.0 0.00 0.00 0.00 69 1014.3
20260502222015 21 0 0.0 0.0 0.00 0.00 0.00 68 1014.3
20260502221529 21 0 0.0 0.0 0.00 0.00 0.00 69 1014.4
20260502221016 21 0 0.0 0.0 0.00 0.00 0.00 69 1014.4
20260502220517 21 0 0.0 0.0 0.00 0.00 0.00 69 1014.6
20260502220034 21 0 0.0 0.0 0.00 0.00 0.00 68 1014.7
20260502215518 21 0 0.0 0.0 0.00 0.00 0.00 67 1014.8
20260502215020 21 0 0.0 0.0 0.00 0.00 0.00 68 1014.8
20260502214542 21 0 0.0 0.0 0.00 0.00 0.00 68 1014.8
20260502214019 21 0 0.0 0.0 0.00 0.00 0.00 66 1014.9
20260502213517 22 0 0.0 0.0 0.00 0.00 0.00 65 1014.9
20260502213032 22 0 0.0 0.0 0.00 0.00 0.00 66 1014.9
20260502212517 22 0 0.0 0.0 0.00 0.00 0.00 66 1014.9
20260502212017 22 0 0.0 0.0 0.00 0.00 0.00 68 1014.9
20260502211534 22 0 0.0 0.0 0.00 0.00 0.00 66 1014.9
20260502211015 22 0 0.0 0.0 0.00 0.00 0.00 66 1015.0
20260502210516 22 0 0.0 0.0 0.00 0.00 0.00 67 1015.0
20260502210040 21 0 0.0 0.0 0.00 0.00 0.00 67 1015.0
20260502205515 21 0 0.0 0.0 0.00 0.00 0.00 67 1015.1
20260502205017 21 0 0.0 0.0 0.00 0.00 0.00 65 1015.2
20260502204536 21 0 0.0 0.0 0.00 0.00 0.00 66 1015.3
20260502204017 22 0 0.0 0.0 0.00 0.00 0.00 66 1015.3
20260502203521 22 0 0.0 0.0 0.00 0.00 0.00 66 1015.3
20260502203042 22 0 0.0 0.0 0.00 0.00 0.00 68 1015.3
20260502202521 22 0 0.0 0.0 0.00 0.00 0.00 67 1015.3
20260502202015 21 0 0.0 0.0 0.00 0.00 0.00 67 1015.3
20260502201530 21 0 0.0 0.0 0.00 0.00 0.00 70 1015.4
20260502201016 21 0 0.0 0.0 0.00 0.00 0.00 68 1015.5
20260502200518 21 0 0.0 0.0 0.00 0.00 0.00 68 1015.6
20260502200041 20 0 0.0 0.0 0.00 0.00 0.00 70 1015.5
20260502195516 20 0 0.0 0.0 0.00 0.00 0.00 70 1015.6
20260502195015 20 0 0.0 0.0 0.00 0.00 0.00 73 1015.8